{"data":{"norad_id":62713,"epoch":"2026-05-25T03:10:05.371968Z","epoch_age_seconds":53691,"freshness":"FRESH","line1":"1 62713U 25009DJ  26145.13200662  .00005897  00000+0  46785-3 0  9994","line2":"2 62713  97.6986 226.7284 0008623 179.1723 180.9517 15.00867455 74100","mean_motion":15.00867455,"eccentricity":0.0008623,"inclination_deg":97.6986,"raan_deg":226.7284,"arg_perigee_deg":179.1723,"mean_anomaly_deg":180.9517,"bstar":0.00046785,"rev_number":7410,"period_min":95.944514967179,"perigee_km":558.23368355977,"apogee_km":570.2064725766,"semimajor_km":6942.3570780682,"source":"CELESTRAK","updated_at":"2026-05-25T13:38:03.208239Z"}}